Flag for U.S.A. Weather past 2 weeks in Honolulu, Hawaii, U.S.A.

Now
76 °F

Passing clouds.


Feels Like: 77 °F
Forecast: 72 / 84 °F
Wind: 5 mph from North

Location: Honolulu International Airport

Current Time: Aug 30, 2014 at 4:31:42 AM

Latest Report: Aug 30, 2014 at 3:53 AM


Visibility: 10 mi

Pressure: 29.90 "Hg

Humidity: 77%

Dew point: 68 °F

Location of HonoluluLocation

Historic Weather in Honolulu — Graph

°F

Honolulu temperature yesterday

Maximum temperature yesterday: 90 °F (at 12:53 PM)
Minimum temperature yesterday: 75 °F (at 4:53 AM)
Average temperature yesterday: 82 °F

Past Weeks' High & Low Weather Summary

 TemperatureHumidityPressure
High90 °F (Aug 23, 1:53 PM)88% (Aug 24, 5:53 AM)30.04 "Hg (Aug 24, 5:53 AM)
Low75 °F (Aug 19, 5:53 AM)39% (Aug 23, 1:53 PM)29.83 "Hg (Aug 28, 3:53 PM)
Average81 °F62%29.95 "Hg
* Reported Aug 15 2:53 AM — Aug 30 2:53 AM, Honolulu, Weather by CustomWeather, © 2014

Note: Actual official high and low records may vary slightly from our data, if they occured in-between our weather recording intervals... More about our weather records

Advertising

Honolulu weather history for previous 24 hours

 ConditionsComfort  
Time TempWeatherWind HumidityBarometerVisibility
2:53 AM
Aug 30
76 °FPassing clouds.5 mph77%29.90 "Hg10 mi
1:53 AM76 °FPassing clouds.No wind77%29.90 "Hg10 mi
12:53 AM77 °FPassing clouds.3 mph71%29.92 "Hg10 mi
11:53 PM
Aug 29
78 °FPassing clouds.3 mph69%29.93 "Hg10 mi
10:53 PM79 °FPassing clouds.No wind67%29.93 "Hg10 mi
9:53 PM79 °FPassing clouds.3 mph65%29.94 "Hg10 mi
8:53 PM79 °FPassing clouds.5 mph67%29.93 "Hg10 mi
7:53 PM80 °FPassing clouds.5 mph64%29.91 "Hg10 mi
6:53 PM81 °FPassing clouds.9 mph58%29.90 "Hg10 mi
5:53 PM84 °FScattered clouds.14 mph53%29.88 "Hg10 mi
4:53 PM86 °FScattered clouds.14 mph48%29.87 "Hg10 mi
3:53 PM87 °FScattered clouds.14 mph46%29.87 "Hg10 mi
2:53 PM87 °FScattered clouds.5 mph42%29.87 "Hg10 mi
1:53 PM89 °FBroken clouds.12 mph41%29.88 "Hg10 mi
12:53 PM90 °FScattered clouds.12 mph39%29.89 "Hg10 mi
11:53 AM87 °FScattered clouds.7 mph46%29.90 "Hg10 mi
11:41 AM88 °FPassing clouds.13 mph46%29.91 "Hg10 mi
10:53 AM86 °FScattered clouds.10 mph49%29.91 "Hg10 mi
8:53 AM82 °FScattered clouds.6 mph60%29.92 "Hg10 mi
7:53 AM80 °FScattered clouds.3 mph64%29.92 "Hg10 mi
6:53 AM76 °FScattered clouds.3 mph74%29.91 "Hg10 mi
5:53 AM75 °FPassing clouds.5 mph79%29.90 "Hg10 mi
4:53 AM75 °FPassing clouds.3 mph79%29.89 "Hg10 mi
Weather by CustomWeather, © 2014

See weather overviewHow to use our weather pages